"Pseudo-MPEC" for P22bZYt
Created 2026 Mar 30 21:35:17 UT using Find_Orb
Click here for an explanation of pseudo-MPECs
Astrometry:
P22bZYt C2025 07 17.32037016 47 41.201-07 36 36.97 ~29Bo 22.28GVNEOCPF52
P22bZYt C2025 07 17.34712116 47 37.443-07 36 56.02 ~29Bo 22.12GVNEOCPF52
P22bZYt C2025 07 17.36049116 47 35.624-07 37 05.29 ~29Bo 22.06GVNEOCPF52
P22bZYt* C2025 07 26.29268516 28 49.001-09 18 46.68 ~29Bo 21.65wXNEOCPF52
P22bZYt C2025 07 26.31447916 28 46.458-09 19 01.00 ~29Bo 21.81wXNEOCPF52
P22bZYt C2025 07 26.32530816 28 45.168-09 19 08.25 ~29Bo 22.42wXNEOCPF52
P22bZYt KC2025 07 27.16415616 27 10.419-09 28 19.09 ~29Bo 22.1 GWNEOCPH01
P22bZYt KC2025 07 27.16920216 27 09.858-09 28 22.48 ~29Bo 22.3 GWNEOCPH01
P22bZYt KC2025 07 27.18273216 27 08.327-09 28 31.27 ~29Bo 22.3 GWNEOCPH01
P22bZYt KC2025 07 27.18693516 27 07.847-09 28 34.10 ~29Bo 21.9 GWNEOCPH01
P22bZYt 1C2025 08 01.26903616 18 14.017-10 22 38.96 ~29Bo 22.57GVNEOCPT12
P22bZYt 1C2025 08 01.27290616 18 13.622-10 22 41.39 ~29Bo 22.66GVNEOCPT12
P22bZYt 1C2025 08 15.37906 15 59 12.33 -12 40 02.9 ~29Bo VNEOCPQ62
P22bZYt 1C2025 08 15.39272 15 59 11.44 -12 40 10.0 ~29Bo 22.4 GVNEOCPQ62
P22bZYt 3C2025 08 16.25235215 58 16.776-12 48 02.06 ~29Bo 22.87GVNEOCPT14
P22bZYt 3C2025 08 16.25390015 58 16.680-12 48 02.89 ~29Bo 22.96GVNEOCPT14
P22bZYt 3C2025 08 16.25545015 58 16.582-12 48 03.76 ~29Bo 23.07GVNEOCPT14
P22bZYt 3C2025 08 22.28984815 52 36.001-13 41 23.20 ~29Bo 22.66GVNEOCPT14
P22bZYt 3C2025 08 25.30307015 50 12.604-14 07 04.13 ~29Bo 23.11GVNEOCPT14
P22bZYt 3C2025 08 25.30467915 50 12.517-14 07 04.70 ~29Bo 23.67GVNEOCPT14
P22bZYt 3C2025 08 25.30623115 50 12.465-14 07 05.58 ~29Bo 23.14GVNEOCPT14
Station data:
(F52) Pan-STARRS 2, Haleakala (N20.707382 W156.255910) US/Hawaii.
Observers J. Herman, T. Lowe, P. Minguez, A. Schultz, I. Smith. Measurers
K. Chambers, T. de Boer, J. Fairlamb, H. Gao, M. Huber, C.-C. Lin, E.
Magnier, Y. Ramanjooloo, R. Wainscoat, R. Weryk. 1.8-m Ritchey-Chrétien +
CCD.
(H01) Magdalena Ridge Observatory, Socorro (N33.984833 W107.189333) US/New
Mexico. Observers W. H. Ryan, E. V. Ryan. Measurer W. H. Ryan. 2.4-m
f/8.9 reflector + CCD.
(Q62) iTelescope Observatory, Siding Spring (S31.273286 E149.064420)
Australia/NSW. Observer H. Sato. 0.30-m f/9 reflector + CCD.
(T12) Mauna Kea-UH/Tholen NEO Follow-Up (2.24-m) (N19.822991 W155.469434)
US/Hawaii. Observer R. Weryk. 2.24-m f/10.1 University of Hawaii
reflector.
(T14) Mauna Kea-UH/Tholen NEO Follow-Up (CFHT) (N19.825252 W155.468876)
US/Hawaii. Observer R. Weryk. 3.6-m Canada-France-Hawaii Telescope.
Orbital elements: P22bZYt
Perihelion 2025 Jun 10.170102 +/- 0.0317 TT = 4:04:56.8 (JD 2460836.670102)
Epoch 2025 Aug 25.0 TT = JDT 2460912.5 AutoNEOCP
M 0.028025796 +/- 0.0012 (J2000 ecliptic)
n 0.000369587 +/- 1.62e-5 Peri. 151.965389 +/- 0.009
a 192.3052112 +/- 5.63 Node 68.646746 +/- 0.0012
e 0.98345836 +/- 0.000484 Incl. 144.246904 +/- 0.0011
P2666.77626 H 17.12 G 0.15 U 5.3
q 3.181042428 +/- 6.93e-5 Q 381.4293800 +/- 11.3
From 21 observations 2025 July 17-Aug. 25; mean residual 0".18
Residuals in arcseconds: 250717 F52 .03+ .07+ 250727 H01 .03- .01- 250816 T14 .03- .01+ 250717 F52 .42- .11- 250727 H01 .05- .03+ 250816 T14 .01+ .02+ 250717 F52 .21+ .05+ 250727 H01 .13- .05- 250816 T14 .03+ .01- 250726 F52 .60+ .10+ 250801 T12 .05+ .02- 250822 T14 .11- .09- 250726 F52 .24+ .12+ 250801 T12 .09- .04- 250825 T14 .09+ .09- 250726 F52 .35- .01- 250815 Q62 .32- .11+ 250825 T14 .11- .15+ 250727 H01 .17- .09+ 250815 Q62 .24- .48+ 250825 T14 .16+ .05+ Ephemerides (geocentric): Date (UTC) HH RA Dec delta r elong mag " sig PA ---- -------- ------------ ------------ ------ ------ ----- --- -------- 2026 03 30 22 14 51 28.764 -39 01 49.30 3.4449 4.1940 133.4 23.6 11.4 7 2026 03 30 23 14 51 23.663 -39 01 55.68 3.4446 4.1942 133.4 23.6 11.5 7 2026 03 31 00 14 51 18.559 -39 02 02.03 3.4443 4.1945 133.5 23.6 11.5 7 2026 03 31 01 14 51 13.452 -39 02 08.35 3.4441 4.1947 133.5 23.6 11.5 7 2026 03 31 02 14 51 08.343 -39 02 14.65 3.4438 4.1950 133.6 23.6 11.5 7 2026 03 31 03 14 51 03.232 -39 02 20.91 3.4436 4.1952 133.6 23.6 11.5 7 2026 03 31 04 14 50 58.118 -39 02 27.15 3.4433 4.1955 133.6 23.6 11.5 7 2026 03 31 05 14 50 53.002 -39 02 33.37 3.4430 4.1957 133.7 23.6 11.5 7 2026 03 31 06 14 50 47.883 -39 02 39.55 3.4428 4.1959 133.7 23.6 11.5 7 2026 03 31 07 14 50 42.762 -39 02 45.71 3.4425 4.1962 133.8 23.6 11.5 7 2026 03 31 08 14 50 37.638 -39 02 51.84 3.4423 4.1964 133.8 23.6 11.5 7 2026 03 31 09 14 50 32.512 -39 02 57.95 3.4420 4.1967 133.9 23.6 11.5 7 2026 03 31 10 14 50 27.384 -39 03 04.02 3.4418 4.1969 133.9 23.6 11.5 7 2026 03 31 11 14 50 22.253 -39 03 10.07 3.4415 4.1971 134.0 23.6 11.5 7 2026 03 31 12 14 50 17.120 -39 03 16.09 3.4413 4.1974 134.0 23.6 11.5 8 2026 03 31 13 14 50 11.984 -39 03 22.09 3.4410 4.1976 134.1 23.6 11.5 8 2026 03 31 14 14 50 06.846 -39 03 28.06 3.4408 4.1979 134.1 23.6 11.5 8 2026 03 31 15 14 50 01.706 -39 03 34.00 3.4405 4.1981 134.2 23.6 11.5 8 2026 03 31 16 14 49 56.563 -39 03 39.91 3.4402 4.1983 134.2 23.6 11.5 8 2026 03 31 17 14 49 51.418 -39 03 45.79 3.4400 4.1986 134.3 23.6 11.5 8 2026 03 31 18 14 49 46.270 -39 03 51.65 3.4397 4.1988 134.3 23.6 11.5 8 2026 03 31 19 14 49 41.120 -39 03 57.48 3.4395 4.1991 134.3 23.6 11.5 8 2026 03 31 20 14 49 35.968 -39 04 03.28 3.4393 4.1993 134.4 23.6 11.6 8 2026 03 31 21 14 49 30.813 -39 04 09.05 3.4390 4.1996 134.4 23.6 11.6 8 2026 03 31 22 14 49 25.656 -39 04 14.80 3.4388 4.1998 134.5 23.6 11.6 8 2026 03 31 23 14 49 20.497 -39 04 20.52 3.4385 4.2000 134.5 23.6 11.6 8 2026 04 01 00 14 49 15.335 -39 04 26.21 3.4383 4.2003 134.6 23.6 11.6 8 2026 04 01 01 14 49 10.171 -39 04 31.87 3.4380 4.2005 134.6 23.6 11.6 8 2026 04 01 02 14 49 05.004 -39 04 37.51 3.4378 4.2008 134.7 23.6 11.6 8 2026 04 01 03 14 48 59.835 -39 04 43.11 3.4375 4.2010 134.7 23.6 11.6 8 2026 04 01 04 14 48 54.664 -39 04 48.69 3.4373 4.2012 134.8 23.6 11.6 9 2026 04 01 05 14 48 49.491 -39 04 54.24 3.4370 4.2015 134.8 23.6 11.6 9 2026 04 01 06 14 48 44.315 -39 04 59.77 3.4368 4.2017 134.9 23.6 11.6 9 2026 04 01 07 14 48 39.137 -39 05 05.26 3.4366 4.2020 134.9 23.6 11.6 9 2026 04 01 08 14 48 33.956 -39 05 10.73 3.4363 4.2022 135.0 23.6 11.6 9 2026 04 01 09 14 48 28.773 -39 05 16.17 3.4361 4.2024 135.0 23.6 11.6 9 2026 04 01 10 14 48 23.588 -39 05 21.58 3.4358 4.2027 135.0 23.6 11.6 9 2026 04 01 11 14 48 18.401 -39 05 26.97 3.4356 4.2029 135.1 23.6 11.6 9 2026 04 01 12 14 48 13.211 -39 05 32.32 3.4354 4.2032 135.1 23.6 11.6 9 2026 04 01 13 14 48 08.019 -39 05 37.65 3.4351 4.2034 135.2 23.6 11.6 9 2026 04 01 14 14 48 02.825 -39 05 42.95 3.4349 4.2037 135.2 23.6 11.6 9 2026 04 01 15 14 47 57.628 -39 05 48.22 3.4347 4.2039 135.3 23.6 11.6 9 2026 04 01 16 14 47 52.430 -39 05 53.47 3.4344 4.2041 135.3 23.6 11.7 9 2026 04 01 17 14 47 47.228 -39 05 58.68 3.4342 4.2044 135.4 23.6 11.7 9 2026 04 01 18 14 47 42.025 -39 06 03.87 3.4340 4.2046 135.4 23.5 11.7 9 2026 04 01 19 14 47 36.819 -39 06 09.03 3.4337 4.2049 135.5 23.5 11.7 9 2026 04 01 20 14 47 31.612 -39 06 14.16 3.4335 4.2051 135.5 23.5 11.7 10 2026 04 01 21 14 47 26.401 -39 06 19.26 3.4333 4.2053 135.6 23.5 11.7 10